Weather in Staroe Selo

Ukraine / Rovno District     51°36′34″N   27°07′32″E
temp.,
°C
wind,
m/s
gust,
m/s
humid.,
%
clouds,
%
prec.,
mm/h
press.,
hPa
HPBL,
m
12 may, wed
wed1200:00+12ese39825 0.0 1018156
03:00+11e311950 0.0 1017260
06:00+11e3109826 0.0 1017335
09:00+13ese697123 0.0 1017886
12:00+17ese68411 0.0 10161491
15:00+18ese68395 0.0 10151937
18:00+17ese674529 0.0 10142021
21:00+10sse247242 0.0 101473
13 may, thu
thu1300:00+8ese2382100 0.0 101350
03:00+7sse239080 0.0 101143
06:00+7ese2489100 0.0 1009118
09:00+11se456899 0.0 1009729
12:00+15sse574994 0.1 10071798
15:00+17sse7848100 0.1 10052130
18:00+13sse5970100 0.0 1006841
21:00+11se61481100 0.2 1005730
14 may, fri
fri1400:00+12sse5128564 0.1 1005761
03:00+10sse5118895 0.1 1005526
06:00+11sse41091100 0.1 1005503
09:00+11sse489042 0.2 1005430
12:00+18ssw475462 0.1 10051659
15:00+20ssw474999 0.4 10051881
18:00+18wsw455580 0.0 10051036
21:00+14w2577100 0.2 1006129
15 may, sat
sat1500:00+12wsw3786100 0.0 1007326
03:00+11wsw3692100 0.0 1008279
06:00+11wsw3789100 0.0 1008473
09:00+11wsw4777100 0.0 1009591
12:00+16w465498 0.0 10091663
15:00+17wnw585346 0.2 10091550
18:00+17wnw465512 0.1 10091319
21:00+12nw228115 0.1 101020
16 may, sun
sun1600:00+9nw11932 0.0 101111
03:00+9s11910 0.0 101211
06:00+8se11887 0.0 101211
09:00+16e2361100 0.0 1012445
12:00+20ese3347100 0.0 10111588
15:00+23se4538100 0.0 10102380
18:00+21se4648100 0.0 10091843
21:00+16e3975100 0.1 1009235